{"data":{"norad_id":52550,"intl_designator":"2022-051T","name":"STARLINK-3965","alt_names":[],"object_type":"PAYLOAD","status":"ACTIVE","operator":null,"country":"US","launch_date":"2022-05-13","launch_site_code":"AFWTR","launch_vehicle":null,"mission":null,"orbit_class":"UNKNOWN","rcs_meters":null,"size_class":null,"mass_kg":null,"dimensions":null,"purposes":["comms"],"wikipedia_slug":null,"has_3d_model":false,"image_url":null,"decayed_at":null,"tle_current":{"epoch":"2026-09-19T18:27:06.963840Z","epoch_age_seconds":126492,"freshness":"FRESH","line1":"1 52550U 22051T   26262.76883060 -.00002108  00000+0 -51283-4 0  9998","line2":"2 52550  53.1615 324.7936 0000974  85.4249 274.6865 15.34388203240928","mean_motion":15.34388203,"eccentricity":9.74e-5,"inclination_deg":53.1615,"raan_deg":324.7936,"arg_perigee_deg":85.4249,"mean_anomaly_deg":274.6865,"bstar":-5.1283e-5,"rev_number":24092,"period_min":93.848479621034,"perigee_km":462.07200234729,"apogee_km":463.40460485643,"semimajor_km":6840.8753036019,"source":"CELESTRAK","updated_at":"2026-09-20T09:00:40.061171Z"}}}